This is the latest recevied weather packets stored in our database for station/object KB3HHA-13. If no packets are shown the sender has not sent any weather packets the latest 10 day(s).
| Time | Temp. | Humidity | Pressure | Rain* | Wind** | Luminosity | Snow |
|---|---|---|---|---|---|---|---|
| 1777566120 | 18.33° C | 51% | 1008.9 hPa | 0 mm | - | - | - |
| 1777565822 | 18.33° C | 52% | 1009 hPa | 0 mm | - | - | - |
| 1777565524 | 18.33° C | 54% | 1009.1 hPa | 0 mm | - | - | - |
| 1777565220 | 17.78° C | 55% | 1009.2 hPa | 0 mm | - | - | - |
| 1777564922 | 17.22° C | 54% | 1009.2 hPa | 0 mm | - | - | - |
| 1777564625 | 17.22° C | 54% | 1009.3 hPa | 0 mm | - | - | - |
| 1777564320 | 16.67° C | 55% | 1009.3 hPa | 0 mm | - | - | - |
| 1777564021 | 16.67° C | 56% | 1009.3 hPa | 0 mm | - | - | - |
| 1777563722 | 16.67° C | 58% | 1009.4 hPa | 0 mm | - | - | - |
| 1777563420 | 16.67° C | 59% | 1009.3 hPa | 0 mm | - | - | - |
| 1777563123 | 16.11° C | 58% | 1009.3 hPa | 0 mm | - | - | - |
| 1777562821 | 16.67° C | 57% | 1009.3 hPa | 0 mm | - | - | - |
| 1777562521 | 16.67° C | 57% | 1009.4 hPa | 0 mm | - | - | - |
| 1777562222 | 16.67° C | 59% | 1009.4 hPa | 0 mm | - | - | - |
| 1777561922 | 16.67° C | 58% | 1009.4 hPa | 0 mm | - | - | - |
| 1777561622 | 16.11° C | 58% | 1009.4 hPa | 0 mm | - | - | - |
| 1777561322 | 16.11° C | 60% | 1009.5 hPa | 0 mm | - | - | - |
| 1777561021 | 15.56° C | 61% | 1009.3 hPa | 0 mm | - | - | - |
| 1777560722 | 15.56° C | 65% | 1009.4 hPa | 0 mm | - | - | - |
| 1777560421 | 15.56° C | 64% | 1009.3 hPa | 0 mm | - | - | - |
| 1777560123 | 15.56° C | 62% | 1009.5 hPa | 0 mm | - | - | - |
| 1777559821 | 15.56° C | 63% | 1009.6 hPa | 0 mm | - | - | - |
| 1777559520 | 15.56° C | 66% | 1009.6 hPa | 0 mm | - | - | - |
| 1777559222 | 15.56° C | 66% | 1009.7 hPa | 0 mm | - | - | - |
| 1777558920 | 15° C | 67% | 1009.7 hPa | 0 mm | - | - | - |
* Rain latest hour (hover to see other rain measurements)
** Current wind speed in m/s (hover to see current wind gust speed)